Tellico Plains, TN

3:07 PM EDT on March 28, 2017 (GMT -0400)
Mountains ki4mjq | | Change Station

Elev 1670 ft 35.25 °N, 84.34 °W | Updated 20 seconds ago

Mostly Cloudy
Mostly Cloudy
74.4 °F
Feels Like 77 °F
N
6.0
Wind Variable Wind from South

Today
High -- | Low -- °F
--% Chance of Precip.
Yesterday
High -- | Low -- °F
Precip. -- in
Pressure 29.99 in
Visibility 10.0 miles
Clouds Scattered Clouds 4300 ft
Mostly Cloudy 5000 ft
Mostly Cloudy 6500 ft
Heat Index 77 °F
Dew Point 60 °F
Humidity 61%
Rainfall 0.30 in
Snow Depth Not available.
7:29 AM 7:55 PM
New Moon, 1% visible
METAR KRHP 281840Z AUTO 24012KT 10SM SCT043 BKN050 BKN065 21/13 A2999 RMK AO2 T02060125
Pressure 29.99 in
Visibility 10.0 miles
Clouds Scattered Clouds 4300 ft
Mostly Cloudy 5000 ft
Mostly Cloudy 6500 ft
Heat Index 77 °F
Dew Point 60 °F
Humidity 61%
Rainfall 0.30 in
Snow Depth Not available.
7:29 AM 7:55 PM
New Moon, 1% visible
METAR KRHP 281840Z AUTO 24012KT 10SM SCT043 BKN050 BKN065 21/13 A2999 RMK AO2 T02060125

Get Severe Weather Alerts

Thanks for signing up!

Be on the lookout for a verification email in your inbox.

You'll start receiving the daily forecast at 8 AM.

×

10-Day Weather Forecast

Almanac

Astronomy

Mar. 28, 2017 Rise Set
Actual Time
Civil Twilight
Nautical Twilight
Astronomical Twilight
Moon
Length of Visible Light
Length of Day
Tomorrow will be .
, % of the Moon is Illuminated

Today's Extremes

State Highs State Lows

Community

WunderPhotos

Upload Photos

1,962,540 photos uploaded!

WunderBlog® & News

Nearby

Air Quality

  Air Quality AQ Index Pollutant
Not available.

Snow Depth

Station Depth Elevation

Earthquake Activity

City Distance Mag. Time & Date
Minimum magnitude displayed is 2.5.

Earthquake Activity

City Distance Mag. Time & Date
Minimum magnitude displayed is 2.5.

Coastal Water Temperatures

Place Temperature

Stations

Nearby Weather Stations

Station Location Temp. Windchill Dew Point Humidity Wind Precip. Elev Updated Type
                   

Watches & Warnings

There are currently no watches in effect.